Time,TemperatureF,DewpointF,PressureIn,WindDirection,WindDirectionDegrees,WindSpeedMPH,WindSpeedGustMPH,Humidity,HourlyPrecipIn,Conditions,Clouds,dailyrainin,SoftwareType,DateUTC
2013-07-24 00:01:00,71.5,56.0,29.79,NW,306,0.0,2.0,59,0.00,,,0.00,weatherlink.com 1.10,2013-07-24 06:01:00,
2013-07-24 00:16:00,71.1,56.0,29.80,WNW,296,0.0,5.0,59,0.00,,,0.00,weatherlink.com 1.10,2013-07-24 06:16:00,
2013-07-24 00:31:00,71.0,56.0,29.80,WNW,301,1.0,3.0,59,0.00,,,0.00,weatherlink.com 1.10,2013-07-24 06:31:00,
2013-07-24 00:46:00,70.8,56.0,29.79,WNW,292,1.0,6.0,59,0.00,,,0.00,weatherlink.com 1.10,2013-07-24 06:46:00,
2013-07-24 01:01:00,70.8,56.0,29.79,WNW,283,0.0,3.0,59,0.00,,,0.00,weatherlink.com 1.10,2013-07-24 07:01:00,
2013-07-24 01:16:00,70.6,55.0,29.79,WNW,284,0.0,2.0,59,0.00,,,0.00,weatherlink.com 1.10,2013-07-24 07:16:00,
2013-07-24 01:31:00,70.4,55.0,29.78,WNW,284,0.0,1.0,59,0.00,,,0.00,weatherlink.com 1.10,2013-07-24 07:31:00,
2013-07-24 02:01:00,69.5,55.0,29.78,WNW,284,0.0,1.0,61,0.00,,,0.00,weatherlink.com 1.10,2013-07-24 08:01:00,
2013-07-24 02:16:00,68.9,55.0,29.79,WNW,284,0.0,0.0,62,0.00,,,0.00,weatherlink.com 1.10,2013-07-24 08:16:00,
2013-07-24 02:31:00,68.3,56.0,29.79,WNW,284,0.0,0.0,64,0.00,,,0.00,weatherlink.com 1.10,2013-07-24 08:31:00,
2013-07-24 02:46:00,67.9,56.0,29.78,WNW,284,0.0,0.0,65,0.00,,,0.00,weatherlink.com 1.10,2013-07-24 08:46:00,
2013-07-24 03:01:00,67.4,56.0,29.78,WNW,284,0.0,0.0,66,0.00,,,0.00,weatherlink.com 1.10,2013-07-24 09:01:00,
2013-07-24 03:16:00,66.9,56.0,29.78,WNW,284,0.0,0.0,67,0.00,,,0.00,weatherlink.com 1.10,2013-07-24 09:16:00,
2013-07-24 03:31:00,66.6,55.0,29.78,WNW,284,0.0,0.0,67,0.00,,,0.00,weatherlink.com 1.10,2013-07-24 09:31:00,
2013-07-24 03:46:00,66.2,55.0,29.78,WNW,284,0.0,0.0,67,0.00,,,0.00,weatherlink.com 1.10,2013-07-24 09:46:00,
2013-07-24 04:01:00,65.7,56.0,29.78,WNW,284,0.0,0.0,70,0.00,,,0.00,weatherlink.com 1.10,2013-07-24 10:01:00,
2013-07-24 04:16:00,65.8,54.0,29.78,WNW,284,0.0,0.0,67,0.00,,,0.00,weatherlink.com 1.10,2013-07-24 10:16:00,
2013-07-24 04:31:00,66.1,54.0,29.78,West,265,0.0,1.0,66,0.00,,,0.00,weatherlink.com 1.10,2013-07-24 10:31:00,
2013-07-24 04:46:00,66.0,54.0,29.78,West,265,0.0,0.0,65,0.00,,,0.00,weatherlink.com 1.10,2013-07-24 10:46:00,
2013-07-24 05:01:00,65.7,54.0,29.79,West,265,0.0,0.0,66,0.00,,,0.00,weatherlink.com 1.10,2013-07-24 11:01:00,
2013-07-24 05:16:00,65.4,55.0,29.79,West,265,0.0,0.0,68,0.00,,,0.00,weatherlink.com 1.10,2013-07-24 11:16:00,
2013-07-24 05:31:00,65.1,54.0,29.79,West,265,0.0,0.0,68,0.00,,,0.00,weatherlink.com 1.10,2013-07-24 11:31:00,
2013-07-24 05:46:00,64.5,55.0,29.79,West,265,0.0,0.0,70,0.00,,,0.00,weatherlink.com 1.10,2013-07-24 11:46:00,
2013-07-24 06:01:00,63.9,55.0,29.79,West,265,0.0,0.0,72,0.00,,,0.00,weatherlink.com 1.10,2013-07-24 12:01:00,
2013-07-24 06:17:00,63.3,55.0,29.80,West,265,0.0,0.0,75,0.00,,,0.00,weatherlink.com 1.10,2013-07-24 12:17:00,
2013-07-24 06:31:00,63.4,56.0,29.79,West,265,0.0,0.0,76,0.00,,,0.00,weatherlink.com 1.10,2013-07-24 12:31:00,
2013-07-24 06:46:00,64.4,57.0,29.79,West,265,0.0,0.0,76,0.00,,,0.00,weatherlink.com 1.10,2013-07-24 12:46:00,
2013-07-24 07:01:00,67.0,57.0,29.79,West,265,0.0,0.0,71,0.00,,,0.00,weatherlink.com 1.10,2013-07-24 13:01:00,
2013-07-24 07:16:00,68.4,57.0,29.79,West,266,0.0,1.0,66,0.00,,,0.00,weatherlink.com 1.10,2013-07-24 13:16:00,
2013-07-24 07:31:00,68.6,57.0,29.78,West,266,0.0,0.0,66,0.00,,,0.00,weatherlink.com 1.10,2013-07-24 13:31:00,
2013-07-24 07:46:00,69.0,57.0,29.78,West,270,0.0,2.0,66,0.00,,,0.00,weatherlink.com 1.10,2013-07-24 13:46:00,
2013-07-24 08:01:00,69.2,57.0,29.79,NNE,15,0.0,3.0,66,0.00,,,0.00,weatherlink.com 1.10,2013-07-24 14:01:00,
2013-07-24 08:16:00,69.7,57.0,29.79,NNE,15,0.0,2.0,65,0.00,,,0.00,weatherlink.com 1.10,2013-07-24 14:16:00,
2013-07-24 09:52:00,72.0,58.0,29.80,NE,39,1.0,4.0,62,0.00,,,0.00,weatherlink.com 1.10,2013-07-24 15:52:00,
2013-07-24 10:02:00,72.7,59.0,29.80,NW,323,1.0,4.0,62,0.00,,,0.00,weatherlink.com 1.10,2013-07-24 16:02:00,
2013-07-24 10:17:00,73.6,59.0,29.79,NNW,347,1.0,7.0,60,0.00,,,0.00,weatherlink.com 1.10,2013-07-24 16:17:00,
2013-07-24 10:32:00,74.3,58.0,29.79,NNW,340,0.0,6.0,58,0.00,,,0.00,weatherlink.com 1.10,2013-07-24 16:32:00,
2013-07-24 10:47:00,75.3,59.0,29.79,North,10,2.0,6.0,57,0.00,,,0.00,weatherlink.com 1.10,2013-07-24 16:47:00,
2013-07-24 11:02:00,76.3,59.0,29.79,NE,54,1.0,4.0,56,0.00,,,0.00,weatherlink.com 1.10,2013-07-24 17:02:00,
2013-07-24 11:17:00,77.1,60.0,29.79,East,83,0.0,6.0,55,0.00,,,0.00,weatherlink.com 1.10,2013-07-24 17:17:00,
2013-07-24 11:32:00,77.2,60.0,29.78,NNE,26,1.0,6.0,55,0.00,,,0.00,weatherlink.com 1.10,2013-07-24 17:32:00,
2013-07-24 11:48:00,78.2,59.0,29.77,WNW,298,4.0,5.0,52,0.00,,,0.00,weatherlink.com 1.10,2013-07-24 17:48:00,
2013-07-24 12:03:00,78.5,60.0,29.77,NNE,24,1.0,4.0,54,0.00,,,0.00,weatherlink.com 1.10,2013-07-24 18:03:00,
2013-07-24 12:18:00,78.7,61.0,29.76,NW,306,4.0,7.0,54,0.00,,,0.00,weatherlink.com 1.10,2013-07-24 18:18:00,
2013-07-24 12:33:00,79.0,60.0,29.76,WNW,284,2.0,8.0,53,0.00,,,0.00,weatherlink.com 1.10,2013-07-24 18:33:00,
2013-07-24 12:48:00,78.9,60.0,29.75,NNE,31,3.0,3.0,53,0.00,,,0.00,weatherlink.com 1.10,2013-07-24 18:48:00,
2013-07-24 13:03:00,78.2,61.0,29.74,WNW,292,1.0,6.0,55,0.00,,,0.00,weatherlink.com 1.10,2013-07-24 19:03:00,
2013-07-24 13:18:00,77.4,60.0,29.74,West,273,0.0,3.0,55,0.00,,,0.00,weatherlink.com 1.10,2013-07-24 19:18:00,
2013-07-24 13:33:00,76.9,60.0,29.75,WNW,295,0.0,7.0,56,0.00,,,0.00,weatherlink.com 1.10,2013-07-24 19:33:00,
2013-07-24 13:48:00,76.5,60.0,29.77,WSW,258,0.0,7.0,57,0.00,,,0.00,weatherlink.com 1.10,2013-07-24 19:48:00,
2013-07-24 14:03:00,76.3,60.0,29.77,WNW,284,2.0,5.0,57,0.00,,,0.00,weatherlink.com 1.10,2013-07-24 20:03:00,
2013-07-24 14:18:00,76.1,60.0,29.77,East,84,2.0,4.0,58,0.00,,,0.00,weatherlink.com 1.10,2013-07-24 20:18:00,
2013-07-24 14:33:00,75.7,61.0,29.77,NNW,342,0.0,5.0,61,0.00,,,0.00,weatherlink.com 1.10,2013-07-24 20:33:00,
2013-07-24 14:48:00,75.0,46.0,29.77,SE,144,2.0,7.0,35,0.00,,,0.00,weatherlink.com 1.10,2013-07-24 20:48:00,
2013-07-24 15:03:00,75.7,48.0,29.77,SW,229,0.0,3.0,37,0.00,,,0.00,weatherlink.com 1.10,2013-07-24 21:03:00,
2013-07-24 15:18:00,76.3,46.0,29.79,WSW,248,1.0,11.0,34,0.00,,,0.00,weatherlink.com 1.10,2013-07-24 21:18:00,
2013-07-24 15:33:00,76.0,44.0,29.79,West,276,1.0,16.0,32,0.00,,,0.00,weatherlink.com 1.10,2013-07-24 21:33:00,
2013-07-24 15:48:00,75.6,45.0,29.78,WSW,254,4.0,7.0,34,0.00,,,0.00,weatherlink.com 1.10,2013-07-24 21:48:00,
2013-07-24 16:03:00,75.6,45.0,29.79,South,190,1.0,9.0,34,0.00,,,0.00,weatherlink.com 1.10,2013-07-24 22:03:00,
2013-07-24 16:18:00,75.4,49.0,29.81,SSW,200,0.0,5.0,39,0.00,,,0.00,weatherlink.com 1.10,2013-07-24 22:18:00,
2013-07-24 16:33:00,75.3,49.0,29.81,SSW,200,0.0,4.0,39,0.00,,,0.00,weatherlink.com 1.10,2013-07-24 22:33:00,
2013-07-24 16:48:00,75.4,50.0,29.81,SW,232,0.0,6.0,41,0.00,,,0.00,weatherlink.com 1.10,2013-07-24 22:48:00,
2013-07-24 17:03:00,75.3,48.0,29.80,SSW,198,0.0,5.0,38,0.00,,,0.00,weatherlink.com 1.10,2013-07-24 23:03:00,
2013-07-24 17:18:00,75.2,48.0,29.79,South,175,3.0,3.0,39,0.00,,,0.00,weatherlink.com 1.10,2013-07-24 23:18:00,
2013-07-24 17:33:00,76.9,48.0,29.76,SW,230,0.0,4.0,36,0.00,,,0.00,weatherlink.com 1.10,2013-07-24 23:33:00,
2013-07-24 17:48:00,78.8,49.0,29.75,SW,219,0.0,2.0,35,0.00,,,0.00,weatherlink.com 1.10,2013-07-24 23:48:00,
2013-07-24 18:03:00,78.3,48.0,29.75,SSW,197,0.0,2.0,34,0.00,,,0.00,weatherlink.com 1.10,2013-07-25 00:03:00,
2013-07-24 18:18:00,76.9,48.0,29.75,South,184,1.0,2.0,36,0.00,,,0.00,weatherlink.com 1.10,2013-07-25 00:18:00,
2013-07-24 18:33:00,76.3,49.0,29.75,SSW,196,0.0,2.0,38,0.00,,,0.00,weatherlink.com 1.10,2013-07-25 00:33:00,
2013-07-24 18:48:00,76.1,51.0,29.75,SSW,198,0.0,1.0,41,0.00,,,0.00,weatherlink.com 1.10,2013-07-25 00:48:00,
2013-07-24 19:03:00,75.7,50.0,29.74,SSW,198,0.0,0.0,40,0.00,,,0.00,weatherlink.com 1.10,2013-07-25 01:03:00,
2013-07-24 19:18:00,75.9,52.0,29.74,SSW,198,0.0,0.0,43,0.00,,,0.00,weatherlink.com 1.10,2013-07-25 01:18:00,
2013-07-24 19:33:00,75.8,51.0,29.74,SSW,198,0.0,1.0,42,0.00,,,0.00,weatherlink.com 1.10,2013-07-25 01:33:00,
2013-07-24 19:48:00,75.4,52.0,29.74,SSE,167,0.0,2.0,44,0.00,,,0.00,weatherlink.com 1.10,2013-07-25 01:48:00,
2013-07-24 20:03:00,74.6,52.0,29.74,South,170,0.0,2.0,46,0.00,,,0.00,weatherlink.com 1.10,2013-07-25 02:03:00,
2013-07-24 20:18:00,74.0,51.0,29.74,South,172,0.0,1.0,45,0.00,,,0.00,weatherlink.com 1.10,2013-07-25 02:18:00,
2013-07-24 20:48:00,73.3,51.0,29.75,South,189,1.0,1.0,46,0.00,,,0.00,weatherlink.com 1.10,2013-07-25 02:48:00,
2013-07-24 21:33:00,73.0,50.0,29.76,South,190,0.0,0.0,45,0.00,,,0.00,weatherlink.com 1.10,2013-07-25 03:33:00,
2013-07-24 21:48:00,72.9,51.0,29.77,South,190,0.0,0.0,46,0.00,,,0.00,weatherlink.com 1.10,2013-07-25 03:48:00,
2013-07-24 22:03:00,73.0,51.0,29.81,WNW,300,7.0,17.0,46,0.00,,,0.00,weatherlink.com 1.10,2013-07-25 04:03:00,
2013-07-24 22:18:00,68.2,54.0,29.83,NNE,13,3.0,12.0,60,0.00,,,0.00,weatherlink.com 1.10,2013-07-25 04:18:00,
2013-07-24 22:33:00,66.2,54.0,29.84,ENE,66,2.0,16.0,64,0.00,,,0.00,weatherlink.com 1.10,2013-07-25 04:33:00,
2013-07-24 22:48:00,66.0,53.0,29.85,NNW,340,3.0,15.0,64,0.00,,,0.00,weatherlink.com 1.10,2013-07-25 04:48:00,
2013-07-24 23:03:00,65.9,53.0,29.84,NNE,25,2.0,8.0,63,0.00,,,0.00,weatherlink.com 1.10,2013-07-25 05:03:00,
2013-07-24 23:18:00,65.2,53.0,29.85,WNW,302,1.0,10.0,65,0.00,,,0.00,weatherlink.com 1.10,2013-07-25 05:18:00,
2013-07-24 23:33:00,64.6,53.0,29.86,West,281,3.0,16.0,67,0.00,,,0.00,weatherlink.com 1.10,2013-07-25 05:33:00,
2013-07-24 23:48:00,63.7,52.0,29.86,NNE,25,6.0,12.0,66,0.00,,,0.00,weatherlink.com 1.10,2013-07-25 05:48:00,